EW2997 Weather Reports


time (UTC)temp
F
wind
direction
speed
knots
gust
knots
rain 1hr
in
rain 24hr
in
rain mn
in
humidity
%
barometer
mb
20260506175344 61 210 3.5 4.3 0.00 0.23 0.23 95 1011.4
20260506172343 61 222 1.7 1.7 0.00 0.23 0.23 93 1011.1
20260506165340 61 204 2.6 2.6 0.00 0.23 0.23 93 1011.1
20260506162337 61 234 2.6 2.6 0.00 0.23 0.23 91 1011.4
20260506155332 60 228 1.7 1.7 0.00 0.23 0.23 91 1011.1
20260506152328 61 324 3.5 4.3 0.00 0.23 0.23 91 1010.7
20260506145328 60 253 0.0 0.0 0.03 0.23 0.23 94 1011.1
20260506142324 58 23 1.7 1.7 0.02 0.22 0.22 95 1010.7
20260506135320 58 213 3.5 3.5 0.07 0.19 0.19 94 1011.4
20260506132318 58 204 3.5 3.5 0.01 0.13 0.13 93 1011.1
20260506125314 58 180 0.0 0.0 0.05 0.10 0.10 92 1011.4
20260506122310 59 237 3.5 3.5 0.02 0.07 0.07 89 1011.1
20260506115307 59 168 0.9 0.9 0.05 0.05 0.05 89 1011.4
20260506112305 59 114 0.0 0.0 0.04 0.04 0.04 87 1011.7
20260506105305 63 192 1.7 1.7 0.00 0.00 0.00 70 1011.1
20260506102259 66 260 2.6 2.6 0.00 0.00 0.00 58 1010.4
20260506095255 66 210 4.3 5.2 0.00 0.00 0.00 56 1009.7
20260506092251 66 182 2.6 2.6 0.00 0.00 0.00 55 1010.4
20260506085251 67 221 2.6 2.6 0.00 0.00 0.00 53 1010.4
20260506082248 67 150 2.6 2.6 0.00 0.00 0.00 52 1010.7
20260506072240 68 200 1.7 1.7 0.00 0.00 0.00 51 1010.7
20260506062235 68 222 2.6 2.6 0.00 0.00 0.00 50 1011.4
20260506042229 65 120 1.7 1.7 0.00 0.00 0.00 55 1012.5
20260506035229 67 168 0.0 0.0 0.00 0.00 0.00 52 1012.1
20260506032229 67 148 0.0 0.0 0.00 0.00 0.00 51 1012.1
20260506025229 64 119 0.0 0.0 0.00 0.00 0.00 56 1012.1
20260506022228 61 162 0.0 0.0 0.00 0.00 0.00 65 1012.5
20260506015224 61 114 0.0 0.0 0.00 0.00 0.00 63 1012.1
20260506012222 62 174 0.0 0.0 0.00 0.00 0.00 61 1012.1
20260506005222 65 126 1.7 1.7 0.00 0.00 0.00 51 1011.4
20260506002217 66 138 2.6 2.6 0.00 0.00 0.00 52 1011.4
20260505235212 71 183 0.0 0.0 0.00 0.00 0.00 47 1011.4
20260505232212 76 256 3.5 3.5 0.00 0.00 0.00 33 1011.1
20260505225212 78 191 1.7 1.7 0.00 0.00 0.00 34 1010.7
20260505222209 78 293 2.6 2.6 0.00 0.00 0.00 39 1011.1
20260505215205 79 217 4.3 5.2 0.00 0.00 0.00 34 1010.7
20260505212205 80 258 3.5 3.5 0.00 0.00 0.00 31 1010.7
20260505205200 81 203 5.2 6.1 0.00 0.00 0.00 31 1010.7
20260505202158 81 252 3.5 3.5 0.00 0.00 0.00 31 1011.1
20260505195157 81 213 5.2 5.2 0.00 0.00 0.00 31 1011.1
20260505192157 80 258 5.2 5.2 0.00 0.00 0.00 35 1011.4
20260505185154 79 216 7.8 8.7 0.00 0.00 0.00 35 1011.7